Temp
21 20 19 19 21 22 25 30 30 28 30 30 28 29 28 28 26 22 22 22 20 18 18 18 18 19 19 19 19 19 18 18 18 18 18 18 18 18 18 18 18 19 18 18 19 19 19 19 19
20 20 20 20 22 26 25 28 27 30 30 29 27 23 27 26 24 23 23 22 20 18 17 18 18 18 19 19 18 18 18 18 18 18 18 18 18 18 18 18 18 18 18 18 18 19 19 19 19
21 22 21 19 23 27 22 26 31 31 30 30 26 25 27 25 23 23 23 22 21 20 18 19 18 18 18 18 18 18 18 18 18 18 18 18 18 18 18 18 18 18 18 18 18 19 18 19 19
22 22 22 23 27 28 30 31 31 31 30 29 28 27 27 25 25 24 23 23 22 19 20 19 19 18 18 18 18 18 18 18 18 18 18 18 18 18 18 18 18 18 18 18 18 18 18 18 18
22 22 23 28 30 31 31 31 31 31 31 30 27 26 27 25 25 25 24 23 22 19 21 19 18 18 18 18 18 18 18 18 18 18 18 18 18 19 18 18 18 18 19 18 18 18 18 18 19
18 19 23 29 28 30 28 28 28 31 30 29 28 27 26 25 25 25 24 23 22 20 18 19 19 18 18 18 18 18 18 18 18 18 18 18 18 19 19 19 18 19 19 18 19 19 18 18 18
17 19 27 24 27 30 28 28 26 32 31 29 27 26 26 25 25 25 25 24 22 21 18 17 18 18 18 18 18 18 18 18 19 18 18 18 18 18 19 19 18 19 19 19 19 18 18 18 18
22 23 25 22 24 29 26 27 30 31 30 29 28 27 26 25 25 26 25 24 24 22 20 18 17 19 18 18 18 18 19 19 19 19 18 19 19 19 18 19 19 19 19 19 19 19 19 18 19
25 19 25 27 24 30 31 32 30 30 30 30 28 27 26 25 26 26 26 25 24 23 22 21 19 19 18 19 19 19 19 19 19 19 19 18 20 18 18 18 18 19 19 19 19 19 19 19 19
20 20 30 32 32 32 32 32 31 31 31 29 29 27 26 25 26 26 25 25 25 24 24 22 21 20 20 18 20 20 19 19 19 19 19 19 19 19 18 18 19 19 20 20 19 19 19 19 18
21 24 25 34 32 33 33 32 32 31 30 29 28 26 25 26 26 26 25 25 25 25 24 22 22 21 20 19 20 20 19 20 19 19 19 19 19 19 19 19 19 19 18 18 18 18 18 17 18
27 33 33 33 33 31 31 32 33 31 30 29 28 27 26 26 26 26 26 26 25 25 24 23 22 21 21 20 20 20 20 20 20 20 20 19 20 19 19 19 19 18 18 18 18 18 18 18 18
34 35 34 33 32 31 30 26 29 31 31 29 28 27 26 26 26 27 26 26 25 25 24 23 22 21 21 21 21 21 21 21 21 20 20 20 20 20 19 19 19 18 18 18 18 18 18 18 18
35 30 31 33 24 28 27 26 24 31 30 29 28 27 27 27 27 27 27 26 26 25 24 23 22 21 20 20 20 20 21 21 21 21 21 20 20 19 19 19 19 19 19 19 18 18 18 18 18
35 23 25 32 25 24 27 25 24 27 30 29 28 28 28 28 28 27 27 27 26 25 24 23 22 20 20 19 20 20 20 21 21 21 21 20 20 19 19 19 19 19 19 19 19 19 18 18 18
29 31 30 35 34 26 24 19 24 25 29 29 29 28 28 28 28 27 27 27 26 26 24 23 23 21 20 20 19 20 21 21 21 21 21 20 20 20 20 19 19 18 18 18 18 18 18 18 18
27 30 33 34 35 27 24 19 22 26 29 30 29 29 29 29 28 27 27 27 26 25 24 23 23 22 21 20 20 21 21 21 21 21 21 20 20 20 20 19 19 19 18 18 17 18 18 18 18
25 30 35 34 35 35 30 23 26 26 31 31 30 29 29 29 29 27 27 27 26 25 24 23 23 23 22 21 20 20 21 22 21 21 20 20 20 19 19 19 19 19 18 18 18 18 18 18 18
31 35 35 35 35 34 29 26 30 32 32 32 31 30 29 29 29 28 28 27 26 25 24 23 22 22 21 21 20 20 21 21 22 22 21 20 21 20 20 20 19 19 18 18 18 18 18 18 18
35 35 35 36 36 35 33 30 31 33 32 33 32 31 30 29 29 28 28 27 26 25 24 23 22 22 21 21 21 21 22 22 22 22 21 21 20 20 20 20 19 19 19 19 19 19 18 18 18
35 35 35 34 35 35 33 30 26 33 33 32 32 32 31 30 30 29 28 28 26 25 24 23 22 22 22 21 21 22 22 22 22 22 20 19 20 20 21 19 20 19 19 19 19 18 18 18 19
34 36 35 35 34 33 33 30 28 32 33 33 33 32 32 31 30 29 29 28 28 26 25 24 24 22 23 22 22 22 22 22 23 22 22 21 20 20 20 20 19 20 19 19 19 19 19 19 19
35 36 35 35 34 35 34 33 33 34 33 33 33 33 32 32 30 30 29 28 29 27 26 25 24 23 23 23 23 22 22 22 23 23 22 21 21 22 21 20 19 19 19 19 18 18 19 19 19
36 35 35 35 35 31 29 32 33 33 35 34 34 33 33 32 31 31 30 29 28 28 26 25 25 24 23 23 23 22 22 23 23 23 23 22 21 22 21 20 18 18 19 19 19 18 18 18 19
35 34 32 33 33 25 30 33 36 36 36 36 35 34 33 32 32 30 30 29 29 28 27 26 25 25 25 23 23 23 23 22 23 22 22 22 22 22 22 20 20 19 19 19 18 18 18 18 19
35 35 33 31 33 30 34 35 35 37 36 36 35 34 33 33 32 31 31 30 29 29 27 27 26 25 25 25 24 25 24 24 24 23 22 23 22 22 21 21 19 19 19 19 18 18 18 17 17
34 34 36 35 35 35 36 36 37 37 36 36 35 34 33 33 33 32 31 30 30 29 28 27 26 26 26 26 25 25 25 25 24 24 23 23 22 21 21 21 21 21 20 20 18 18 18 17 17
35 36 34 35 32 32 35 34 34 34 35 35 36 35 34 33 33 32 32 31 30 29 29 28 27 26 26 26 25 25 26 25 24 23 23 23 22 22 21 21 21 21 21 19 18 18 18 18 16
34 34 35 35 35 33 33 32 35 34 35 35 36 35 34 33 33 33 31 31 31 30 29 29 28 27 26 25 24 25 26 26 25 24 23 23 22 22 22 21 21 21 21 20 17 17 17 18 18
35 35 35 33 33 34 34 30 36 36 36 35 35 35 34 34 33 33 32 31 31 31 30 29 29 28 27 26 25 25 25 26 26 25 24 23 22 21 21 21 20 19 18 18 18 17 18 17 17
Height
1486 1487 1487 1488 1496 1487 1484 1467 1459 1468 1466 1467 1472 1473 1474 1474 1482 1507 1510 1517 1520 1523 1524 1528 1531 1533 1536 1539 1541 1543 1545 1546 1548 1549 1550 1551 1552 1553 1554 1554 1555 1556 1557 1558 1560 1561 1563 1563 1563
1485 1489 1492 1491 1489 1486 1488 1468 1475 1465 1467 1472 1474 1484 1485 1482 1493 1503 1512 1518 1521 1524 1527 1529 1532 1535 1538 1541 1543 1545 1547 1548 1550 1551 1552 1553 1554 1555 1556 1556 1557 1557 1558 1559 1561 1563 1564 1565 1565
1490 1493 1496 1491 1487 1482 1502 1476 1466 1469 1470 1472 1480 1488 1488 1489 1501 1506 1514 1520 1523 1527 1530 1530 1533 1537 1539 1542 1544 1546 1548 1550 1551 1552 1553 1554 1555 1556 1557 1557 1558 1559 1559 1560 1562 1563 1565 1566 1567
1494 1497 1494 1484 1482 1472 1469 1466 1467 1469 1473 1474 1480 1491 1493 1499 1505 1510 1515 1521 1525 1528 1530 1532 1535 1538 1540 1543 1545 1547 1549 1551 1552 1553 1554 1555 1556 1557 1558 1558 1559 1559 1560 1560 1562 1564 1565 1567 1568
1495 1496 1494 1471 1466 1462 1464 1466 1465 1469 1473 1476 1483 1495 1498 1503 1509 1513 1518 1523 1527 1529 1531 1534 1537 1540 1542 1544 1546 1548 1550 1551 1552 1553 1554 1556 1557 1558 1559 1559 1559 1560 1560 1561 1562 1563 1565 1566 1568
1491 1502 1500 1481 1476 1466 1471 1471 1474 1470 1479 1484 1488 1495 1503 1508 1512 1515 1518 1521 1526 1529 1534 1535 1538 1541 1544 1545 1547 1549 1550 1551 1553 1555 1557 1558 1560 1560 1560 1560 1560 1560 1560 1561 1563 1564 1565 1565 1567
1482 1502 1490 1489 1483 1472 1475 1475 1475 1470 1477 1485 1491 1498 1505 1510 1514 1517 1520 1524 1528 1531 1535 1537 1539 1542 1544 1546 1548 1549 1551 1552 1554 1557 1560 1563 1563 1564 1564 1562 1561 1561 1560 1562 1563 1564 1565 1566 1567
1478 1496 1489 1494 1492 1479 1480 1475 1473 1475 1482 1486 1490 1499 1505 1510 1515 1518 1522 1524 1529 1532 1536 1540 1542 1543 1545 1547 1549 1550 1551 1553 1556 1559 1563 1563 1563 1564 1565 1565 1563 1562 1561 1562 1563 1564 1565 1566 1567
1484 1497 1489 1487 1494 1475 1472 1471 1477 1481 1483 1486 1489 1497 1505 1511 1515 1518 1523 1526 1530 1532 1536 1539 1542 1544 1546 1548 1550 1551 1552 1554 1558 1562 1562 1562 1559 1561 1564 1565 1564 1562 1561 1561 1562 1564 1565 1566 1566
1493 1499 1471 1459 1464 1466 1472 1471 1473 1479 1480 1487 1492 1499 1507 1512 1515 1518 1524 1527 1531 1534 1536 1540 1543 1544 1547 1549 1550 1552 1553 1555 1558 1562 1562 1561 1560 1561 1564 1565 1564 1562 1561 1561 1562 1564 1565 1566 1566
1484 1487 1474 1456 1466 1462 1466 1469 1470 1474 1478 1485 1495 1501 1507 1512 1516 1519 1524 1527 1531 1533 1536 1540 1545 1546 1547 1548 1550 1551 1553 1554 1557 1561 1563 1564 1563 1565 1565 1565 1564 1562 1560 1559 1561 1564 1565 1566 1567
1472 1463 1465 1463 1464 1469 1474 1468 1468 1476 1483 1485 1494 1502 1507 1512 1515 1519 1522 1526 1530 1533 1537 1542 1545 1547 1550 1550 1551 1552 1553 1555 1557 1559 1563 1564 1565 1566 1566 1564 1563 1561 1561 1560 1560 1563 1563 1563 1565
1461 1461 1463 1464 1471 1470 1472 1474 1472 1475 1479 1487 1495 1502 1507 1511 1515 1518 1521 1526 1530 1534 1538 1542 1543 1548 1549 1550 1552 1554 1555 1556 1557 1558 1560 1562 1563 1564 1563 1562 1560 1559 1560 1560 1560 1561 1562 1558 1563
1463 1471 1467 1463 1480 1471 1479 1492 1488 1482 1480 1489 1497 1502 1507 1510 1514 1517 1520 1525 1529 1534 1538 1540 1542 1546 1548 1550 1552 1553 1553 1555 1557 1557 1557 1560 1560 1560 1559 1558 1557 1557 1559 1559 1560 1561 1561 1560 1561
1458 1481 1477 1464 1467 1479 1481 1497 1500 1486 1484 1491 1498 1502 1507 1510 1512 1516 1520 1524 1528 1533 1538 1539 1542 1545 1547 1549 1550 1552 1554 1555 1556 1556 1555 1556 1556 1557 1555 1555 1555 1556 1555 1555 1556 1558 1559 1559 1560
1479 1472 1476 1457 1460 1477 1477 1516 1482 1484 1488 1492 1497 1501 1504 1507 1510 1515 1520 1524 1528 1532 1535 1539 1543 1545 1547 1549 1550 1551 1553 1554 1555 1555 1555 1555 1555 1555 1554 1553 1553 1554 1552 1551 1551 1554 1555 1555 1555
1489 1483 1463 1461 1456 1469 1476 1512 1483 1482 1486 1489 1495 1498 1501 1504 1508 1513 1518 1523 1527 1531 1534 1540 1543 1544 1545 1548 1549 1550 1552 1553 1554 1555 1556 1556 1556 1556 1555 1554 1552 1552 1550 1547 1548 1550 1552 1553 1553
1500 1481 1451 1458 1454 1453 1465 1480 1475 1477 1478 1483 1489 1494 1498 1501 1505 1510 1516 1520 1524 1529 1533 1539 1542 1544 1545 1546 1548 1550 1551 1552 1553 1554 1554 1554 1555 1555 1555 1554 1552 1548 1545 1543 1544 1547 1550 1552 1553
1469 1456 1453 1449 1450 1455 1471 1475 1457 1469 1473 1475 1481 1487 1495 1499 1502 1507 1513 1517 1522 1526 1530 1537 1540 1543 1543 1545 1546 1548 1549 1551 1552 1554 1555 1556 1555 1553 1553 1553 1552 1549 1545 1543 1543 1547 1550 1552 1553
1458 1458 1458 1447 1444 1449 1460 1471 1467 1466 1467 1468 1474 1480 1489 1496 1499 1504 1510 1514 1518 1523 1528 1533 1538 1539 1542 1543 1545 1546 1547 1550 1554 1556 1558 1558 1559 1554 1551 1551 1551 1549 1546 1544 1545 1547 1551 1551 1553
1456 1455 1454 1460 1449 1446 1457 1473 1469 1456 1462 1466 1468 1475 1482 1490 1494 1500 1507 1511 1515 1520 1524 1528 1534 1536 1539 1542 1544 1545 1546 1550 1554 1556 1552 1546 1551 1555 1549 1549 1550 1549 1546 1546 1547 1549 1550 1552 1553
1464 1444 1448 1453 1457 1470 1452 1489 1474 1457 1457 1461 1465 1469 1475 1482 1490 1495 1503 1508 1513 1516 1520 1525 1530 1533 1536 1540 1543 1544 1545 1548 1551 1547 1548 1550 1551 1554 1547 1549 1549 1549 1548 1546 1548 1549 1550 1550 1551
1458 1444 1452 1452 1457 1452 1450 1462 1457 1447 1455 1456 1459 1463 1469 1475 1483 1490 1498 1505 1510 1513 1518 1522 1527 1531 1534 1537 1539 1542 1543 1546 1549 1550 1551 1552 1554 1547 1547 1549 1549 1549 1548 1548 1548 1549 1549 1549 1550
1449 1452 1450 1449 1450 1484 1478 1464 1458 1452 1442 1445 1449 1457 1464 1470 1477 1486 1493 1501 1507 1511 1515 1519 1523 1528 1531 1533 1536 1539 1542 1543 1546 1549 1549 1549 1546 1547 1548 1548 1548 1548 1547 1548 1548 1549 1549 1549 1550
1451 1461 1478 1474 1465 1526 1463 1456 1441 1432 1434 1437 1442 1451 1459 1468 1474 1481 1489 1495 1502 1507 1511 1517 1518 1523 1526 1530 1532 1536 1538 1540 1542 1544 1545 1547 1547 1548 1548 1547 1547 1547 1548 1549 1550 1551 1550 1549 1549
1449 1452 1472 1490 1472 1479 1440 1453 1444 1428 1435 1441 1444 1449 1456 1463 1470 1476 1483 1490 1496 1502 1506 1511 1513 1519 1522 1526 1529 1531 1534 1537 1539 1541 1543 1544 1542 1546 1546 1546 1546 1547 1549 1550 1551 1552 1551 1550 1550
1452 1458 1442 1453 1442 1452 1439 1436 1424 1427 1434 1440 1446 1451 1456 1461 1466 1472 1478 1485 1491 1497 1502 1507 1508 1514 1518 1521 1525 1527 1530 1532 1535 1538 1541 1543 1544 1543 1544 1545 1546 1547 1548 1551 1551 1551 1551 1551 1551
1448 1441 1459 1450 1483 1486 1450 1448 1449 1440 1441 1439 1441 1447 1454 1460 1465 1469 1476 1480 1486 1493 1498 1504 1506 1509 1513 1517 1520 1523 1526 1529 1531 1534 1536 1539 1542 1541 1540 1542 1543 1544 1546 1548 1548 1549 1550 1551 1550
1448 1454 1449 1445 1445 1469 1475 1468 1433 1441 1440 1439 1440 1445 1452 1457 1462 1467 1473 1478 1482 1488 1492 1497 1502 1505 1507 1511 1515 1518 1521 1523 1526 1528 1531 1534 1537 1536 1538 1540 1540 1541 1543 1546 1547 1547 1547 1546 1548
1435 1439 1441 1462 1466 1448 1448 1477 1429 1434 1438 1440 1442 1447 1452 1457 1461 1466 1470 1476 1479 1484 1488 1491 1495 1500 1503 1506 1510 1513 1515 1518 1520 1524 1528 1531 1534 1533 1535 1538 1540 1543 1545 1546 1545 1545 1545 1546 1547
Wind_Speed
6 7 3 2 2 5 5 12 19 15 16 19 26 12 17 18 11 15 24 21 22 18 19 18 18 18 19 18 19 19 18 17 15 14 13 14 15 15 13 12 11 9 9 9 9 10 11 11 9
9 5 2 6 3 3 5 11 9 10 21 16 21 30 17 27 29 25 26 25 22 18 18 20 19 18 18 17 17 17 15 14 12 12 12 13 13 12 12 11 10 9 7 7 7 6 7 8 8
1 7 4 3 3 9 7 6 14 14 10 14 18 18 21 33 28 26 28 23 20 21 19 19 19 17 17 17 16 14 13 12 11 11 11 11 10 10 10 9 8 7 7 7 7 5 5 4 4
4 7 10 3 8 11 14 10 11 12 13 21 23 15 20 21 24 26 25 28 24 21 15 20 19 17 17 16 14 13 12 11 10 10 11 10 9 8 7 7 6 5 5 4 4 3 3 3 3
3 4 4 3 13 16 13 5 13 11 11 16 30 22 20 27 24 27 26 23 26 21 18 20 19 18 17 16 14 13 12 11 10 10 9 8 7 6 5 5 4 3 3 2 1 1 1 1 2
11 7 5 11 17 13 15 22 7 16 11 20 25 22 18 24 23 23 23 27 24 22 19 20 19 18 16 15 14 13 12 11 10 9 8 6 5 5 5 5 6 5 3 2 2 1 1 1 2
13 3 8 8 5 8 9 14 8 15 16 22 22 17 22 22 20 21 22 29 24 23 19 17 17 17 14 14 12 9 9 9 8 8 7 5 4 3 3 4 5 5 4 4 2 2 3 2 1
11 2 5 6 2 4 17 14 18 19 13 23 19 14 21 24 20 21 22 16 25 24 18 14 14 14 13 12 12 10 10 8 8 7 6 5 5 5 3 3 5 2 3 4 4 4 5 4 3
19 3 3 7 6 9 8 8 15 13 16 10 15 21 25 24 21 21 20 20 20 21 17 18 15 8 12 5 8 9 8 8 7 9 8 7 5 6 1 2 5 3 1 2 3 3 3 3 3
3 2 0 12 12 14 9 9 12 9 15 11 21 26 25 24 21 21 19 18 17 15 17 22 16 16 9 12 6 8 8 8 7 7 4 6 3 5 4 5 7 2 1 2 1 4 4 4 1
16 5 16 13 21 12 12 10 14 7 11 20 22 26 25 23 21 20 19 19 17 17 21 18 16 16 10 15 4 6 5 6 5 3 5 3 4 2 2 6 7 2 1 2 6 3 3 2 12
4 11 1 15 7 14 8 5 11 12 16 19 22 25 25 23 22 20 19 19 16 16 15 15 14 14 14 8 7 10 6 7 9 4 7 6 10 8 5 4 4 3 5 7 7 6 6 8 5
8 2 5 6 13 3 12 24 15 16 17 18 21 24 23 22 20 19 18 18 17 16 15 15 17 14 14 11 9 10 8 7 7 3 2 7 4 5 6 5 8 5 6 6 7 6 12 13 6
5 30 32 11 13 21 14 17 19 9 20 19 22 23 21 20 19 18 18 18 19 17 16 19 14 20 15 12 13 10 11 6 6 5 7 5 8 4 7 9 9 11 13 12 12 10 5 6 6
12 24 21 7 17 4 21 7 5 17 15 19 21 21 19 19 19 18 17 17 18 17 17 17 12 13 13 11 13 11 6 6 5 5 9 10 6 4 10 12 12 13 14 11 12 10 11 13 13
22 5 11 9 14 9 28 9 24 22 7 18 21 21 20 22 20 17 17 17 17 17 20 15 14 13 13 9 7 8 7 9 7 8 7 10 8 9 12 11 12 11 14 15 14 11 9 8 9
7 12 13 7 5 14 12 6 30 24 20 20 22 21 20 20 19 18 18 17 18 17 19 15 15 13 12 12 7 10 8 9 8 6 7 9 11 10 9 11 12 14 14 16 16 9 9 7 9
12 15 4 7 5 1 14 17 13 29 21 22 22 23 20 20 21 19 19 19 21 20 16 17 16 13 13 13 13 8 8 8 10 9 11 7 8 10 11 11 13 14 13 9 5 7 7 4 7
23 14 10 8 4 5 8 21 6 20 18 22 22 25 24 21 20 22 21 22 21 23 20 19 17 18 13 13 12 11 11 12 6 5 4 9 11 5 7 9 11 10 10 8 3 3 1 2 4
12 13 4 5 6 2 11 12 13 11 18 20 20 24 25 23 23 25 25 23 27 26 23 21 20 20 19 16 11 10 8 12 7 4 9 6 6 6 6 8 7 9 11 12 6 9 1 4 2
14 14 10 7 10 5 6 3 10 10 18 18 22 21 25 25 26 26 24 26 28 29 27 23 22 21 18 14 12 14 12 11 7 8 6 6 6 8 4 5 4 4 10 8 8 4 2 3 4
14 10 10 9 11 10 10 5 11 14 14 17 19 23 24 28 24 28 28 25 27 30 25 23 21 23 19 19 16 14 14 10 10 15 8 2 0 3 4 4 2 4 5 6 4 4 3 3 3
15 12 10 14 14 18 13 8 9 8 12 16 18 22 24 25 26 28 26 26 25 28 27 26 21 21 20 18 20 18 16 13 7 4 4 5 6 4 8 4 1 6 4 2 3 3 4 6 6
15 15 14 16 15 2 21 18 7 6 9 18 19 21 23 23 26 23 28 28 26 26 25 29 26 22 20 22 20 21 17 13 11 11 7 4 6 6 5 5 2 1 3 1 0 1 1 3 3
15 15 11 13 13 1 22 16 9 11 10 4 15 17 22 22 23 24 26 29 28 28 29 26 30 24 22 21 22 22 22 17 17 9 11 8 9 9 9 6 1 2 4 3 2 4 7 5 1
13 16 11 17 15 8 23 5 7 10 15 7 5 16 15 24 23 26 26 26 31 29 32 29 31 29 24 22 22 20 23 22 17 19 12 11 9 7 11 4 5 8 5 4 9 6 0 4 4
14 12 17 17 17 13 2 9 12 16 14 10 14 11 13 19 20 22 28 26 26 28 30 30 30 31 25 25 23 23 22 22 22 17 13 13 5 8 11 11 7 5 6 6 9 6 6 4 4
13 15 13 9 10 9 5 5 11 14 11 8 10 12 13 15 18 21 20 25 25 25 25 27 26 28 24 23 25 25 24 23 23 19 21 18 14 15 17 11 8 9 8 11 8 4 3 5 5
13 14 14 16 12 8 9 4 13 11 6 10 10 11 12 13 18 19 21 18 23 24 26 28 30 29 27 22 25 26 27 26 25 27 25 24 19 23 23 17 13 13 11 12 12 12 7 3 5
13 16 16 12 15 12 9 5 12 11 8 11 13 14 12 9 12 15 20 18 21 22 26 27 30 30 31 29 26 28 28 28 27 27 27 25 23 26 24 18 15 14 11 10 10 9 6 2 1
Wind_Direction
158 114 123 240 219 241 353 93 57 37 78 73 74 74 72 51 80 107 140 139 130 134 140 138 135 134 136 134 133 134 132 129 125 119 114 114 114 112 109 106 112 115 114 104 99 97 103 105 106
157 162 190 294 233 122 14 54 117 95 86 74 73 56 70 91 94 117 130 127 131 129 132 140 139 138 141 140 141 137 137 135 132 131 121 118 117 113 105 104 108 113 118 112 110 112 111 110 110
207 242 245 208 249 70 150 250 84 105 122 82 103 96 97 105 115 131 128 131 125 128 140 135 139 143 145 150 151 145 145 144 142 134 131 130 124 119 112 108 107 108 112 107 101 116 118 109 122
328 286 263 239 72 157 84 91 85 111 63 115 100 80 97 104 119 127 126 134 127 133 151 134 139 143 145 148 150 152 150 146 143 141 138 137 137 136 126 119 113 117 114 108 110 116 115 108 125
340 333 273 138 83 86 112 103 142 103 91 87 105 122 93 119 126 133 131 133 131 131 141 138 139 141 144 144 145 148 150 152 152 151 150 153 153 156 152 151 146 142 137 116 123 152 187 239 219
49 342 300 41 45 72 54 14 357 84 86 89 104 109 112 121 134 143 142 141 144 135 137 141 142 144 143 143 144 145 148 152 156 158 160 158 162 161 162 164 153 154 154 134 158 208 257 279 250
151 264 78 31 56 107 102 173 275 96 115 126 121 131 130 139 137 142 146 145 141 136 145 147 147 143 143 141 142 147 153 157 156 154 147 130 122 105 138 159 154 168 165 168 192 213 236 244 256
122 33 38 130 269 35 142 177 42 93 92 120 124 133 146 144 150 144 144 136 146 142 141 146 156 150 152 147 147 154 147 142 146 145 118 118 107 109 73 134 115 165 192 217 240 250 250 254 273
40 50 178 167 179 122 146 101 119 104 145 125 105 146 148 148 151 151 147 146 141 143 148 159 158 141 146 166 163 155 146 129 117 104 99 126 158 173 185 52 325 321 261 233 247 259 270 274 259
157 229 266 165 164 127 125 109 136 128 123 111 124 132 146 154 157 153 153 157 158 155 160 154 153 166 145 161 149 150 134 100 83 84 63 59 84 71 132 288 336 301 1 322 283 328 277 268 353
177 230 15 73 67 91 120 132 141 142 133 132 133 144 153 158 162 158 164 165 169 165 145 137 147 149 151 169 157 95 89 114 123 153 137 272 196 235 235 279 4 354 169 301 281 335 333 268 278
114 238 174 96 70 94 144 130 118 117 149 133 147 155 158 163 167 165 170 165 173 157 152 165 164 167 160 164 172 163 187 171 212 183 171 155 182 195 234 272 319 308 310 274 279 285 234 254 261
266 125 220 102 37 57 259 71 286 104 117 129 148 158 164 168 171 169 171 168 169 167 165 169 169 162 173 171 165 171 175 160 180 223 244 185 162 203 248 232 260 251 285 306 253 270 255 288 240
349 31 349 119 128 327 19 6 36 99 119 134 153 163 168 172 174 168 175 171 169 169 169 171 184 179 187 155 185 187 174 190 201 230 248 238 189 263 266 265 248 268 265 256 247 255 267 282 278
306 103 244 232 131 157 105 308 262 288 122 146 161 167 169 175 178 172 177 174 174 172 169 172 182 175 185 170 198 172 187 189 200 221 239 275 233 233 266 277 276 279 299 281 267 257 266 251 252
4 256 197 107 112 118 94 313 296 286 218 159 168 171 174 182 181 170 181 180 178 175 167 174 177 181 177 173 189 149 180 193 208 216 242 280 298 235 252 280 289 279 277 278 285 267 279 285 282
324 291 289 118 121 162 97 259 256 242 226 171 173 181 182 183 177 169 183 184 177 175 166 177 176 184 184 194 196 163 202 220 231 228 240 264 295 309 301 298 304 303 304 289 271 261 263 285 296
242 250 5 98 73 245 151 190 215 210 190 173 178 179 190 188 183 171 182 186 175 176 173 179 178 186 198 207 181 195 198 209 226 236 232 248 254 282 291 313 320 323 336 327 266 242 249 272 290
216 283 304 62 104 326 226 44 210 166 192 174 176 179 186 197 188 171 181 179 172 174 174 182 183 188 196 207 198 191 214 218 231 250 269 217 266 278 315 330 334 347 351 10 85 150 162 328 327
302 290 316 304 21 343 14 140 206 189 194 187 183 177 182 196 193 180 185 179 173 176 176 180 189 206 204 195 200 207 200 228 231 232 233 286 295 285 322 333 356 4 54 49 84 126 80 4 295
253 264 20 343 310 320 344 83 257 232 191 208 186 185 183 189 199 187 188 189 176 177 181 186 194 211 208 192 202 213 217 229 198 211 309 264 187 270 350 327 7 56 54 41 63 70 27 329 354
279 359 350 303 291 284 171 176 236 217 182 195 210 186 188 186 195 186 194 196 188 176 182 191 202 209 215 190 201 217 225 219 229 232 241 171 360 246 326 302 359 56 64 24 27 16 352 338 0
262 322 330 291 283 272 175 245 154 140 191 193 202 202 197 187 185 192 193 195 204 187 187 196 210 216 213 209 199 218 228 231 264 188 208 240 279 16 337 317 66 113 65 300 5 1 37 51 64
275 300 284 271 257 61 309 302 153 169 156 186 187 198 196 190 183 192 187 195 201 193 188 193 205 220 215 220 215 205 227 226 223 232 247 299 277 321 305 333 108 215 148 309 64 89 71 103 98
237 249 273 273 233 257 244 257 103 83 63 40 160 170 191 186 189 174 190 191 193 201 193 198 204 214 226 220 225 215 215 225 229 219 236 235 247 263 305 313 67 332 206 203 357 89 32 114 90
262 233 256 296 310 193 226 136 104 95 101 87 108 151 189 184 193 188 185 193 194 198 194 195 207 209 220 230 222 223 218 224 229 228 220 251 235 258 274 284 234 221 242 153 116 105 242 112 349
260 226 245 278 302 299 6 24 124 105 104 121 114 130 165 186 196 189 181 186 192 194 197 196 206 208 219 229 222 221 220 223 230 228 231 220 226 234 246 278 228 193 185 140 130 218 211 97 64
273 275 269 227 259 278 256 350 113 98 114 120 138 148 160 186 192 185 198 187 191 193 198 199 206 210 219 229 224 221 226 227 226 227 226 226 218 228 246 257 217 201 188 161 155 243 197 155 158
227 239 257 279 280 285 295 84 111 113 119 121 108 135 140 169 188 193 184 206 191 198 195 199 203 208 218 220 227 225 227 228 227 226 227 229 210 230 242 247 225 210 202 181 171 192 222 227 201
235 253 216 240 252 275 306 162 114 116 118 114 94 73 98 133 171 188 180 198 198 199 200 199 203 208 213 223 228 230 229 228 230 230 231 234 219 234 243 237 223 214 212 199 199 192 197 219 206